Tracking 31027 objects as of 19-Jul-2025
HD Live streaming from Space Station
objects crossing your sky now

COSMOS 1066

Track COSMOS 1066 now!
10-day predictions
COSMOS 1066 is classified as:


NORAD ID: 11165
Int'l Code: 1978-121A
Perigee: 824.3 km
Apogee: 894.8 km
Inclination: 81.2 °
Period: 102.0 minutes
Semi major axis: 7230 km
RCS: 4.6495 m2 (large)
Launch date: December 23, 1978
Source: Commonwealth of Independent States (former USSR) (CIS)
Launch site: PLESETSK MISSILE AND SPACE COMPLEX (PKMTR)
Your satellite tracking list
GEOTAIL
Track 1 satellite(s)




NASA's NSSDC Master Catalog

Two Line Element Set (TLE):
1 11165U 78121A   25199.51150023  .00000118  00000-0  57225-4 0  9991
2 11165  81.2352 221.8848 0048748 324.7061  35.0886 14.12037913914234
Source of the keplerian elements: AFSPC